Theta_e
321 321 322 322 323 325 324 324 323 323 324 324 323 321 323 326 322 320 327 330 326 327 330 329 329 330 330 330 330 330 332 333 332 336 339 336 336 339 335 329 328 329 330 332 333 334 337 341 344 347 349 349 346 345 347 349 350 352 353 350 347 347 345 343 342 342 341 342 342 342 342 342 342 342 342 343 343 343 343 343 344 344 345 346 346 347 347
320 320 321 321 323 323 323 324 325 325 325 324 324 324 325 326 324 325 328 330 329 330 330 329 329 330 329 329 329 329 329 330 329 333 335 333 332 335 338 338 333 328 328 330 329 330 333 336 339 342 346 347 346 344 345 346 348 351 351 350 348 347 345 342 342 342 341 341 342 342 343 343 342 342 342 343 343 344 344 343 344 344 344 346 346 347 347
320 320 320 320 322 322 322 323 324 324 324 324 324 325 326 325 325 326 327 328 328 330 330 330 330 329 330 330 330 329 330 330 329 329 332 332 331 329 334 342 339 330 328 329 328 329 329 330 334 337 340 342 343 346 346 343 344 347 349 350 349 346 345 344 344 344 342 341 341 342 343 343 343 343 342 343 343 344 344 344 344 345 345 345 346 347 347
319 319 320 319 321 321 320 320 323 323 323 323 324 325 325 325 325 326 325 324 327 329 330 330 331 330 331 331 331 330 329 329 329 329 330 330 332 330 329 336 337 330 328 329 327 328 328 329 331 332 336 339 341 343 344 344 344 347 349 349 346 344 344 345 345 343 342 342 342 342 343 342 343 343 343 343 343 343 344 344 345 345 345 345 346 346 348
319 319 319 319 319 319 319 320 322 323 323 324 324 324 326 326 325 325 323 324 328 330 329 329 331 330 329 330 330 329 330 330 329 330 330 328 330 329 329 334 336 330 328 329 327 327 327 328 330 331 333 337 338 339 342 346 348 348 347 346 344 344 345 345 344 343 342 343 342 342 343 343 343 344 343 343 343 344 344 344 345 345 345 346 346 346 347
319 319 318 319 318 318 320 323 324 324 324 324 324 324 325 326 326 326 326 327 329 330 329 329 330 330 330 330 329 328 330 331 330 330 331 331 331 331 331 335 335 329 327 328 326 326 327 328 331 334 333 333 336 337 339 343 345 345 344 343 343 343 344 343 342 342 342 343 342 342 343 343 344 344 343 344 344 344 345 346 345 346 346 346 346 346 347
318 318 318 319 319 320 322 325 327 327 326 326 326 327 327 327 326 326 326 327 328 329 329 330 330 330 330 328 328 331 331 332 334 334 332 332 331 333 335 336 333 328 326 327 326 327 327 328 333 335 334 336 340 340 339 339 341 341 341 342 341 341 342 341 341 342 342 341 342 342 343 344 344 344 344 344 345 345 346 346 346 346 346 346 346 346 347
318 318 319 319 321 321 322 325 327 328 329 330 328 326 327 327 326 327 329 328 327 327 328 328 327 328 329 328 331 334 334 334 335 333 330 331 334 338 342 341 335 329 326 326 326 326 327 330 334 337 338 340 343 343 340 338 339 340 340 341 341 340 340 340 341 341 341 341 342 343 343 344 344 345 344 344 344 345 346 346 346 346 346 347 347 346 348
318 318 317 319 321 320 321 325 330 331 332 333 331 328 328 330 332 335 337 335 332 331 329 329 330 329 330 331 333 334 334 336 337 335 333 337 339 339 338 336 331 328 326 326 327 327 329 333 336 339 342 344 345 345 343 339 338 340 340 340 341 340 341 341 341 342 342 342 343 343 344 344 344 344 344 344 345 345 345 346 347 347 346 347 347 347 348
316 317 317 319 319 319 321 325 331 333 332 334 335 331 331 337 339 339 340 338 337 337 337 338 339 336 333 333 332 331 330 335 340 341 339 337 336 334 333 332 332 331 329 329 330 330 334 337 337 339 341 343 344 345 344 341 339 340 340 340 341 341 341 341 341 342 343 342 343 343 343 343 344 343 344 344 345 346 346 347 347 348 349 349 348 349 349
314 315 317 318 318 320 325 328 331 332 331 333 333 326 327 337 341 340 340 341 341 343 345 346 346 340 333 331 332 334 332 336 345 349 347 344 339 337 337 335 335 335 334 334 335 336 338 339 338 338 338 341 344 345 342 340 339 340 340 340 341 341 341 342 342 342 342 342 342 343 343 343 344 344 344 345 345 346 346 347 347 348 349 350 350 351 351
314 314 315 317 317 319 325 329 330 329 330 334 331 323 325 337 340 340 341 342 342 346 347 348 347 342 335 334 343 350 349 349 352 351 348 345 342 343 343 340 338 339 338 339 341 341 340 339 339 339 339 342 346 345 341 341 342 341 340 341 341 341 341 341 342 342 342 343 343 343 343 344 344 345 345 346 347 347 347 348 349 350 350 351 352 353 353
313 314 314 315 317 319 321 324 328 329 328 328 326 324 329 338 339 340 342 341 342 345 345 346 347 346 343 343 348 352 353 354 353 349 345 344 343 344 345 342 342 344 344 343 343 343 341 340 341 341 340 343 347 346 340 340 342 343 343 342 341 342 342 342 342 343 343 343 343 344 344 344 344 345 346 347 349 350 351 351 352 352 353 354 356 356 356
313 313 314 314 315 317 318 319 322 325 323 322 326 331 336 338 338 340 342 341 342 343 344 345 347 347 347 346 347 350 352 354 354 350 347 348 348 348 347 345 347 349 348 344 343 344 342 341 342 342 341 343 348 348 343 341 343 346 347 345 342 343 342 342 343 344 345 345 345 345 345 346 346 346 347 348 349 350 351 353 354 354 355 358 357 358 359
313 314 314 314 315 318 322 323 322 321 322 325 332 336 337 337 338 339 341 342 342 341 342 343 344 345 347 347 348 350 352 353 352 350 349 350 350 350 351 351 352 352 351 347 344 344 344 343 343 345 345 345 347 349 351 351 349 349 348 345 344 344 344 344 344 346 347 348 347 347 346 346 347 347 348 348 349 350 351 354 356 358 360 361 359 359 360
315 314 314 316 318 322 325 326 326 327 328 332 335 335 333 336 338 338 340 342 341 340 341 342 343 344 346 346 347 349 349 351 351 350 349 350 350 351 352 352 353 355 355 353 351 348 346 344 346 348 348 347 345 346 349 349 347 346 346 345 344 344 345 345 346 346 347 348 348 348 347 348 348 348 349 350 351 352 354 355 357 360 362 362 361 361 361
317 316 316 318 320 321 323 325 328 330 332 333 334 334 334 336 338 338 340 341 340 339 340 341 342 343 344 345 345 346 347 349 350 350 349 350 351 351 351 351 352 353 355 355 354 353 350 347 346 348 348 346 345 345 346 345 345 346 346 346 347 348 347 348 348 348 348 348 349 349 348 349 350 350 351 353 355 357 359 359 359 360 361 360 360 360 360
316 317 317 318 319 320 322 324 326 328 330 331 332 333 335 336 337 338 338 338 338 338 339 341 342 343 343 344 345 345 347 347 348 348 349 349 350 351 351 351 351 352 353 354 354 354 353 350 348 349 347 347 347 347 347 347 348 348 347 348 348 348 349 350 350 351 353 354 354 354 354 355 356 356 357 359 360 361 361 361 360 361 360 360 360 360 360
315 316 317 317 319 319 320 322 322 324 328 331 331 333 335 336 336 337 337 337 337 338 338 340 342 343 343 344 345 346 346 346 347 347 348 348 349 350 350 350 351 351 352 352 352 353 353 353 352 351 350 351 351 350 351 353 352 351 353 356 356 354 355 357 356 357 358 359 359 360 360 360 360 360 361 361 361 361 361 361 361 361 360 360 361 360 360
314 315 316 316 317 317 318 319 320 321 326 330 332 333 334 335 336 336 336 336 336 337 338 339 340 342 343 343 344 345 345 345 346 346 346 347 347 348 349 349 350 350 351 351 351 351 350 350 351 351 351 351 351 350 351 351 350 350 353 357 360 360 360 360 360 360 361 361 361 361 361 361 361 361 361 361 361 362 361 361 361 361 361 361 361 361 361
313 314 315 316 317 316 316 317 319 321 326 330 331 332 333 335 336 336 336 335 335 336 336 337 338 339 341 342 343 343 343 343 344 344 345 346 346 347 347 348 348 348 349 349 349 349 348 348 348 348 347 346 346 346 346 346 348 349 350 352 355 356 354 354 356 357 358 360 360 360 361 360 359 359 359 360 360 360 361 361 361 361 361 361 361 361 362
312 313 315 316 317 318 318 320 323 324 324 325 326 329 333 335 336 336 336 335 335 335 335 335 336 337 338 340 342 343 343 344 344 344 344 345 345 346 346 346 346 347 347 347 347 347 347 347 346 346 345 342 342 342 341 342 344 346 347 349 350 350 350 351 352 354 355 357 358 359 359 359 359 359 359 359 360 360 359 360 360 360 361 361 360 360 360
313 314 315 316 316 317 318 319 321 321 319 318 319 322 327 331 334 336 336 336 335 335 334 335 335 336 337 339 341 342 342 343 344 344 344 344 344 345 346 346 346 346 345 346 346 346 346 346 346 346 345 344 343 342 342 343 343 342 342 343 343 344 345 345 347 349 351 352 353 354 355 355 355 355 354 354 354 355 356 356 356 356 356 356 356 357 357
313 314 314 314 315 315 315 317 318 318 318 317 317 318 322 327 332 335 335 335 334 334 334 335 335 336 337 337 338 339 340 341 342 343 343 344 344 344 345 345 345 345 345 346 346 346 346 346 346 346 346 345 344 345 345 344 343 341 339 338 338 340 340 341 342 344 344 344 343 341 340 340 339 338 338 338 338 338 339 340 339 339 339 340 341 342 343
313 313 313 313 314 315 315 316 317 317 317 316 316 318 322 327 331 334 335 334 332 332 333 335 335 336 336 336 337 337 337 339 340 341 342 343 343 343 344 344 344 345 345 344 345 345 345 344 345 345 345 345 344 344 344 345 344 342 340 337 335 336 337 337 336 335 334 332 331 330 329 328 328 329 330 330 330 329 329 329 328 328 329 330 331 332 332
312 312 313 313 314 315 316 316 316 317 318 317 318 320 324 327 330 332 332 332 332 332 332 333 334 335 335 335 336 337 337 337 338 340 341 341 342 342 343 343 344 344 344 343 343 343 343 343 343 344 344 344 344 344 344 343 341 338 335 333 332 331 331 331 329 328 327 327 326 327 327 326 328 331 330 328 328 328 328 328 328 327 328 329 330 330 330
312 311 312 312 313 315 316 316 316 317 318 319 321 325 326 327 328 329 329 330 331 331 330 331 334 335 335 335 336 337 337 337 338 339 339 340 340 341 341 342 342 342 342 341 341 342 342 342 342 342 343 343 342 341 339 336 332 329 328 328 328 329 328 327 327 326 326 326 326 326 325 326 328 331 330 327 327 328 327 327 327 327 328 329 329 329 329
311 311 312 312 313 315 316 317 318 319 319 321 324 326 326 326 327 327 327 327 328 328 327 328 330 332 334 335 336 336 336 337 337 337 338 339 339 340 339 340 340 340 340 340 340 341 341 341 341 342 343 341 340 339 336 332 330 329 330 331 332 332 331 330 330 328 326 326 328 328 325 324 326 328 329 328 329 330 331 330 328 327 327 328 328 328 328
311 311 312 313 314 315 316 318 319 320 322 325 326 325 324 325 326 325 325 325 325 325 325 326 327 330 332 333 334 335 335 335 335 335 336 337 338 338 339 338 338 339 339 339 340 340 341 341 342 342 343 342 341 341 339 336 333 331 332 334 337 339 338 337 337 336 333 332 332 330 326 325 327 331 334 334 331 331 332 331 328 327 327 328 327 328 328
313 313 314 314 315 316 317 318 320 321 324 327 326 324 324 326 325 324 323 323 323 322 322 323 325 328 330 331 332 332 332 333 333 333 334 335 336 337 337 337 338 338 338 338 338 339 340 341 342 342 342 342 342 342 342 341 339 338 337 336 336 337 337 338 339 340 339 338 336 333 331 333 334 335 336 337 334 332 333 332 329 328 329 328 327 328 328
317 316 316 317 317 317 319 320 322 324 326 327 326 324 325 326 324 324 325 326 325 324 325 325 325 325 327 329 330 330 330 331 332 332 333 333 333 334 335 336 336 336 336 336 337 337 338 339 340 341 342 342 342 343 343 343 343 342 341 340 337 335 333 334 338 340 340 340 339 337 336 338 339 337 337 338 337 336 336 334 330 328 328 329 328 329 329
319 319 319 318 318 319 320 322 324 326 326 326 325 325 325 325 324 324 325 326 326 326 327 328 327 326 327 328 329 330 330 330 330 331 331 332 332 332 333 333 334 334 334 334 335 335 336 336 337 338 339 340 341 342 342 343 343 343 343 343 341 339 335 334 336 339 340 340 341 340 339 339 339 338 338 338 337 337 338 336 330 327 328 330 330 330 331
322 323 323 322 321 322 324 325 325 326 325 325 325 325 325 326 325 325 325 326 326 325 326 326 327 328 329 329 330 330 330 330 330 330 331 331 331 331 332 332 332 332 333 333 333 334 334 335 335 336 337 338 338 339 340 340 341 342 342 342 342 342 339 337 336 338 339 340 340 340 340 340 341 340 338 338 338 338 338 337 334 331 330 332 333 333 331
323 324 324 324 324 324 324 324 323 324 325 326 326 326 326 326 326 325 326 326 327 327 326 325 325 328 329 329 330 330 330 330 330 330 330 330 331 331 331 331 331 331 332 332 332 333 333 334 334 335 335 336 336 337 337 338 338 339 340 340 340 341 341 340 338 339 339 339 339 340 341 341 341 340 340 339 339 338 338 337 336 335 333 334 335 335 332
323 323 324 325 324 324 323 322 321 322 324 326 327 327 327 328 328 327 327 327 328 328 328 327 327 327 328 328 328 329 329 329 329 328 329 329 329 329 330 330 330 330 331 331 331 332 332 333 333 334 334 334 335 335 336 337 337 337 337 338 337 338 339 339 339 339 338 338 338 338 338 338 339 339 339 339 339 338 338 338 338 337 335 335 335 336 335
324 323 324 324 323 323 323 322 321 321 323 325 327 327 328 329 329 328 328 328 328 328 328 328 327 327 327 327 327 327 327 327 326 326 326 327 327 327 328 328 328 328 329 329 330 331 331 331 332 332 333 333 333 333 334 335 335 335 335 335 336 336 336 336 336 336 336 336 337 337 337 337 337 338 338 338 338 338 338 337 337 338 337 335 334 335 335
325 324 324 324 324 324 324 323 323 323 325 326 327 328 328 329 329 328 327 327 327 327 327 327 327 326 326 326 325 325 325 324 324 324 324 325 325 325 325 326 326 326 326 326 327 328 328 329 330 330 330 331 330 330 331 332 333 333 334 334 334 335 335 335 334 334 334 334 335 336 336 337 338 338 337 337 337 337 336 336 337 337 337 336 336 336 335
322 323 324 324 325 325 325 325 325 326 327 327 328 328 327 327 327 327 326 326 326 326 326 325 325 325 324 324 323 323 323 323 322 322 322 323 323 323 323 323 323 323 323 323 324 325 325 325 326 326 327 328 328 328 328 330 331 332 332 333 333 332 333 333 333 333 334 333 333 334 334 335 336 336 336 336 336 336 336 336 336 336 336 336 336 336 336
318 319 320 320 321 322 323 324 324 325 325 325 324 324 324 324 324 324 324 324 324 324 323 323 322 322 322 321 321 321 321 321 321 321 321 321 321 320 320 320 320 319 319 320 322 323 323 324 323 323 324 324 325 325 326 328 330 330 330 330 330 330 330 331 331 331 332 332 332 332 333 333 333 334 334 335 335 335 335 335 335 335 336 335 335 335 336
315 315 315 316 316 318 319 320 320 320 321 321 321 321 321 321 320 320 320 319 319 320 320 320 319 319 319 319 319 319 319 320 320 320 320 320 320 320 319 319 318 317 318 318 318 319 321 322 322 323 323 322 323 323 324 325 326 326 326 326 326 326 327 328 329 329 330 330 330 330 330 331 331 331 332 333 333 333 333 334 334 334 334 334 334 333 334
313 313 313 313 313 314 315 316 316 316 316 317 317 318 319 318 318 317 317 316 316 316 316 316 316 316 316 316 316 315 315 315 317 318 318 319 319 318 318 318 318 317 317 317 317 317 318 318 320 321 322 322 322 323 324 324 323 323 323 322 322 322 323 325 326 327 328 328 328 328 329 329 329 329 329 330 330 331 331 331 331 332 333 333 333 333 333
315 314 314 313 313 313 314 314 314 314 314 314 315 315 316 316 316 315 315 314 314 313 313 313 313 313 314 314 314 314 313 312 312 313 315 316 317 317 317 317 316 316 316 316 316 316 316 316 317 318 319 320 321 321 322 322 321 321 320 319 319 319 320 322 324 324 325 326 326 326 327 327 327 327 327 327 327 328 329 329 329 329 330 331 332 333 333
315 316 315 315 315 314 314 314 314 315 315 315 315 315 315 314 314 313 313 312 311 310 309 309 309 309 310 310 312 313 313 313 312 311 311 312 313 314 315 315 314 313 313 313 314 315 315 316 316 316 317 317 318 319 319 319 319 319 318 318 317 317 318 319 321 322 323 323 323 323 323 323 323 324 324 325 325 326 327 328 327 326 327 328 330 332 333
316 316 316 315 315 315 315 315 315 315 315 315 314 314 314 313 312 311 310 309 308 307 306 306 305 306 306 306 306 308 309 311 311 312 311 311 311 311 311 312 311 311 310 310 310 311 312 314 314 315 315 316 316 316 317 316 316 316 316 316 315 315 316 316 318 318 319 319 320 321 321 321 322 322 323 324 324 324 325 326 326 326 325 326 327 330 331
316 316 316 316 316 316 315 315 315 314 314 314 313 313 312 311 310 309 308 307 306 306 306 305 305 304 304 305 305 305 304 305 306 308 309 310 310 310 308 307 307 307 307 307 307 307 307 309 311 313 313 313 314 314 314 314 314 314 314 313 313 314 314 314 314 315 315 315 316 318 319 320 321 322 323 323 323 324 324 325 325 326 325 324 325 326 328
315 315 315 315 315 315 315 314 314 313 313 312 312 311 311 310 309 307 307 306 306 305 305 305 305 304 305 305 306 306 305 305 306 307 308 308 308 307 305 303 303 303 303 303 304 304 304 305 307 308 309 309 309 310 310 310 310 310 311 311 311 312 312 312 312 313 313 313 313 314 315 316 317 319 321 322 322 323 323 323 323 323 323 323 324 324 326
314 314 314 313 313 313 313 312 312 311 311 311 310 309 309 308 308 307 306 306 306 305 305 305 305 305 305 306 307 307 307 307 308 308 308 308 306 304 303 304 305 304 303 302 302 302 302 303 303 304 304 305 306 306 307 306 306 306 306 307 307 308 309 310 310 310 311 311 311 312 312 313 313 315 316 318 320 321 322 322 322 321 321 322 323 323 323
313 313 313 312 312 312 312 312 311 310 310 310 309 309 308 307 306 306 305 305 305 305 305 305 305 305 304 304 305 305 306 306 306 306 306 306 305 303 302 303 304 306 306 305 303 302 302 302 302 302 303 304 305 306 305 305 305 305 304 304 304 304 305 306 307 307 307 308 308 308 309 309 310 311 313 314 315 317 319 320 321 321 321 321 322 322 322
313 313 312 312 312 312 313 312 312 311 310 309 309 309 308 307 306 306 306 305 304 304 304 304 304 304 304 304 303 303 303 304 304 304 303 303 303 303 303 302 303 304 305 306 305 304 302 302 302 302 303 304 305 305 305 305 304 304 304 303 303 302 302 302 302 303 304 305 305 305 305 305 305 306 308 309 311 313 314 316 317 319 319 319 320 321 321
312 311 311 311 311 311 312 312 312 312 311 310 310 309 308 306 306 307 307 307 306 305 305 304 304 304 305 305 305 304 303 303 303 303 303 303 303 302 302 302 302 302 303 305 305 305 304 303 303 304 304 304 304 304 304 304 304 304 303 303 303 302 301 301 301 301 301 302 302 303 303 303 303 302 302 304 306 307 309 311 313 314 316 317 318 319 319
311 311 310 309 309 309 309 310 310 310 310 310 310 309 308 307 306 306 307 307 308 307 306 306 305 305 305 306 305 305 304 304 304 303 303 304 304 303 303 302 303 303 303 304 305 305 305 304 303 303 304 304 304 303 303 304 304 303 303 303 302 302 301 301 301 301 301 300 300 301 301 302 302 301 301 300 300 301 303 305 307 309 311 312 313 314 315
310 310 310 310 309 308 307 307 307 306 307 307 308 308 308 308 307 307 306 307 307 307 306 305 305 305 305 305 305 305 304 304 304 304 303 304 304 304 304 304 304 304 304 304 304 304 304 304 303 303 303 303 303 303 303 303 303 303 302 302 302 302 301 301 301 301 301 300 300 300 299 300 300 300 300 300 299 299 299 299 301 303 305 307 308 310 311
Wind_Speed
3 3 3 2 1 2 4 8 12 15 16 19 19 18 16 14 11 9 8 12 14 12 10 8 6 5 5 5 7 7 7 9 10 8 8 7 5 6 6 6 5 7 10 14 17 21 25 27 30 32 34 35 39 42 43 43 40 38 41 46 49 50 51 51 51 50 49 47 47 47 47 47 46 45 45 45 44 44 44 43 41 41 41 41 40 40 40
4 4 3 2 2 3 5 7 9 10 13 15 15 16 17 18 16 14 12 13 13 12 13 13 12 11 12 12 13 16 18 18 17 14 12 10 7 5 5 5 6 9 10 11 12 15 20 25 29 32 34 36 38 41 43 44 43 41 41 45 49 50 51 51 51 51 49 47 46 47 48 48 48 46 46 46 46 46 45 44 43 42 41 41 41 41 41
5 5 5 4 4 5 7 10 11 12 13 13 13 13 14 15 15 16 16 15 13 11 10 12 15 16 15 14 14 17 20 22 23 21 18 15 13 13 10 6 8 15 16 14 13 12 15 20 25 30 34 36 38 38 40 43 46 44 42 44 48 50 50 51 51 51 49 47 47 47 47 48 47 47 46 46 46 46 46 45 44 43 42 42 42 42 43
5 5 6 7 6 7 11 13 14 15 15 14 13 12 13 13 13 15 15 13 10 8 9 11 12 13 13 12 14 17 18 21 22 22 22 21 19 19 18 15 17 22 22 18 18 18 17 17 20 26 31 35 37 38 40 42 42 41 42 44 48 49 49 49 50 49 48 47 47 46 47 47 47 46 46 46 47 47 47 46 45 44 44 43 42 43 44
4 5 4 5 5 8 12 13 15 17 16 15 14 14 14 14 13 13 13 10 8 8 10 10 10 11 13 13 15 17 18 19 20 21 23 24 23 24 23 21 24 27 26 22 21 22 21 18 18 21 25 31 35 37 38 39 38 38 42 46 48 48 47 48 47 47 46 46 46 46 47 46 46 46 46 46 47 47 47 46 45 45 46 45 44 44 45
4 3 1 3 7 9 6 3 8 15 17 18 17 16 16 17 14 13 12 10 9 9 9 10 10 11 13 15 17 18 18 19 20 22 23 23 24 25 23 22 26 29 29 27 24 23 23 20 17 19 22 26 31 34 36 38 39 40 42 45 47 47 47 46 45 44 44 45 45 46 46 46 46 47 46 46 47 47 47 47 47 47 47 47 46 45 46
5 3 2 6 9 6 1 4 3 4 8 13 14 14 15 15 15 16 16 15 13 11 10 10 11 12 14 17 18 19 18 18 18 20 22 22 23 23 22 24 29 32 31 28 25 24 24 20 17 19 21 23 27 32 34 36 39 41 42 43 45 45 45 45 43 43 43 43 44 45 46 47 47 47 47 46 47 47 48 48 48 47 48 48 47 46 46
5 5 6 8 4 2 1 2 3 3 5 6 8 12 15 16 15 15 14 14 15 15 14 16 18 18 19 19 18 18 19 19 20 22 22 21 21 20 20 23 28 31 30 27 25 24 23 20 17 19 21 22 25 29 32 34 37 39 40 42 42 43 43 43 43 43 43 43 43 44 46 46 47 47 46 46 46 46 46 47 47 47 48 48 48 48 47
6 6 8 7 4 4 5 5 3 3 3 2 2 7 9 8 6 4 4 7 10 11 12 15 16 16 15 14 14 18 20 20 21 22 21 19 20 21 23 25 27 28 28 26 24 23 22 20 18 18 20 21 23 28 31 33 35 38 40 40 41 42 42 42 42 43 44 44 44 44 45 45 46 45 44 44 44 44 45 46 47 48 48 48 48 48 47
6 6 7 8 8 8 7 6 5 5 3 3 2 4 3 5 6 5 3 4 7 8 8 9 9 7 7 9 11 17 21 20 20 19 18 19 22 24 26 26 24 25 25 23 22 21 19 18 17 18 19 19 22 27 30 32 33 36 39 40 40 42 42 42 42 42 42 42 41 41 42 42 42 42 42 43 44 44 45 45 47 47 47 47 47 47 48
7 8 8 8 8 4 2 5 7 6 3 2 2 5 5 5 9 6 3 3 6 6 6 7 6 5 7 8 8 12 16 15 14 13 13 16 19 22 23 22 20 21 22 19 18 17 16 16 16 16 16 17 20 25 28 29 29 31 35 37 38 40 40 40 40 39 38 38 38 40 40 40 41 42 41 42 42 43 44 44 45 46 46 47 47 47 47
8 9 8 7 6 4 2 4 6 6 3 1 4 7 4 5 8 6 4 5 6 7 8 7 5 5 7 6 6 10 8 4 6 9 12 16 18 17 17 18 17 18 17 14 14 15 15 15 14 14 14 15 19 21 22 25 27 28 31 33 34 34 35 36 36 35 35 36 38 39 39 39 40 40 40 42 42 42 43 43 43 44 45 45 45 45 45
9 10 9 7 5 5 4 4 4 4 2 3 7 5 2 3 4 4 3 5 7 7 9 8 5 6 8 10 12 12 8 3 4 8 13 16 16 15 15 15 13 12 11 12 13 13 13 13 13 14 14 15 16 17 17 20 23 25 27 29 30 30 31 33 33 33 35 37 37 38 38 39 39 39 40 42 43 43 42 41 41 43 43 41 41 41 40
9 9 9 8 6 4 4 9 9 5 5 4 2 1 2 1 3 3 2 4 5 5 8 9 9 11 14 16 15 12 7 4 4 8 10 10 10 10 11 10 9 8 9 11 11 11 12 12 12 12 13 14 15 15 14 15 17 20 22 25 27 28 29 31 32 33 35 36 36 37 37 38 38 39 40 41 41 41 41 40 40 39 36 35 35 36 35
8 8 9 9 7 1 3 6 8 7 6 4 5 3 1 1 5 5 3 3 3 5 9 11 12 15 16 15 13 10 7 4 3 6 8 7 7 6 3 2 3 4 6 9 11 12 13 13 12 12 12 13 14 14 13 14 16 18 20 22 23 24 25 27 29 31 31 33 34 34 34 34 35 36 37 38 39 40 39 37 35 30 26 26 28 30 31
6 9 9 3 2 5 9 8 4 4 8 10 11 8 5 4 5 5 6 5 4 5 9 12 13 14 14 13 11 11 10 5 2 4 6 5 4 3 1 1 1 1 1 4 8 12 14 14 14 14 14 15 16 16 15 16 17 18 19 20 20 19 20 22 23 25 27 28 29 29 29 31 32 33 35 35 36 35 33 32 30 26 24 25 26 27 30
4 7 6 7 11 13 11 9 9 11 14 12 10 10 9 7 5 5 6 6 5 6 9 12 13 13 13 12 11 12 11 6 4 4 4 3 2 2 2 2 3 3 3 4 5 8 12 15 16 16 16 16 16 16 16 15 15 16 16 16 16 16 16 17 18 19 21 23 24 24 25 26 28 30 31 29 28 26 23 24 26 25 26 28 27 27 29
7 10 12 13 16 17 14 12 13 15 15 12 10 10 10 8 7 6 6 6 6 6 7 9 11 11 11 10 10 10 9 7 7 6 5 4 4 3 3 3 4 4 4 5 6 7 10 13 15 16 16 15 15 14 14 14 14 14 13 13 14 14 14 14 15 16 16 17 18 19 20 21 22 22 22 22 22 21 20 21 24 25 25 27 28 28 30
7 8 9 11 14 17 18 16 14 15 15 14 12 11 10 9 8 7 6 5 5 5 4 5 6 7 7 8 8 7 6 7 8 7 6 5 4 4 4 4 4 5 4 5 6 8 10 11 13 14 14 14 13 12 12 11 12 12 10 9 10 10 10 10 11 12 13 13 14 14 15 16 16 16 16 17 19 21 21 22 24 26 26 26 26 27 29
9 9 10 15 20 23 24 21 17 14 14 15 14 12 11 10 9 7 6 4 4 3 2 2 2 3 4 6 7 6 6 7 7 6 6 5 4 4 3 4 5 5 5 5 6 7 8 9 11 13 13 13 12 11 11 10 9 9 8 7 7 8 8 9 9 10 10 11 12 12 12 12 13 13 15 17 18 20 20 21 24 26 26 26 27 27 28
10 12 13 16 18 19 22 23 18 13 13 15 16 15 12 11 9 7 5 3 1 1 2 2 1 1 1 4 6 6 6 6 6 5 5 5 4 4 4 5 5 6 6 5 6 7 7 8 9 10 12 12 11 10 10 9 8 8 8 7 7 7 9 11 12 12 11 9 8 8 9 9 11 16 19 19 20 21 21 22 24 25 27 28 29 30 30
10 10 9 10 10 10 13 15 12 11 13 16 19 18 15 12 10 7 5 3 1 3 3 3 4 3 2 1 3 5 5 5 5 5 5 6 5 5 6 7 7 7 7 7 7 7 7 7 8 9 10 11 10 10 10 9 8 8 8 7 6 6 6 7 8 9 9 8 6 7 9 11 13 18 20 20 22 23 24 25 26 27 29 31 33 34 35
12 13 13 13 11 12 16 16 16 18 21 22 24 24 21 17 12 8 4 3 3 4 4 4 5 4 4 3 4 5 6 6 7 8 8 8 8 9 9 10 10 10 9 9 10 9 9 8 8 9 10 10 10 11 10 10 9 9 9 9 8 7 6 6 6 5 4 4 4 5 7 8 9 11 12 13 17 20 22 23 24 26 28 31 33 35 38
17 20 22 21 18 20 23 22 20 22 24 24 25 26 25 22 15 9 6 5 5 5 5 5 6 5 6 6 5 6 8 8 9 10 11 11 12 12 12 12 12 13 12 12 12 11 11 11 11 11 11 11 11 11 10 10 11 12 12 13 13 11 10 10 9 9 9 8 7 6 5 5 4 5 4 3 2 4 5 7 8 9 11 13 17 20 24
21 22 23 23 23 25 26 23 23 26 28 26 27 27 25 21 14 9 9 8 7 7 6 7 7 7 8 8 7 8 10 11 12 13 14 15 15 15 15 14 14 15 14 13 13 13 13 14 14 13 13 13 12 11 11 11 11 13 14 16 18 19 19 18 18 17 16 15 14 14 13 13 13 12 11 9 8 7 7 7 9 9 10 10 10 12 15
23 23 22 23 26 28 26 23 24 25 23 21 24 26 23 17 12 9 9 9 9 8 7 8 8 8 10 10 9 11 13 14 16 18 18 18 18 17 16 15 14 15 15 14 14 14 14 15 16 16 15 14 13 12 12 12 14 17 18 20 21 21 21 21 20 19 18 17 16 15 14 14 13 11 9 9 9 10 12 14 15 16 17 18 19 21 23
24 24 23 22 24 27 26 24 24 24 19 18 20 20 17 15 11 9 9 11 11 9 8 11 14 15 14 13 12 13 16 17 20 20 19 19 19 18 17 17 16 16 16 16 15 15 15 15 16 16 16 15 14 14 15 16 19 20 21 21 20 19 19 18 18 16 16 15 14 13 11 11 11 8 7 9 10 12 14 16 17 19 20 22 24 25 26
30 29 27 25 24 25 22 20 21 22 20 18 15 11 13 13 11 11 12 12 12 11 11 14 17 17 16 15 14 14 16 17 19 19 18 18 18 18 17 18 17 16 16 16 16 15 15 15 16 16 15 15 15 16 17 17 18 18 17 17 16 14 13 13 13 13 12 12 11 10 9 9 9 8 7 8 10 11 12 13 16 18 20 22 25 25 26
36 35 33 32 32 28 21 17 18 19 16 14 11 10 11 11 12 16 18 17 17 17 16 17 17 18 18 18 17 16 17 17 18 18 18 17 17 17 16 16 17 16 16 17 16 15 15 15 16 16 15 13 13 13 14 14 14 14 13 12 11 9 7 7 7 7 7 7 8 8 8 8 8 7 6 6 8 10 10 11 14 17 19 23 26 26 27
35 35 33 32 31 27 22 20 21 19 15 13 12 11 10 9 8 15 19 19 17 17 16 17 18 19 20 20 18 17 17 17 18 18 18 17 17 16 14 15 16 17 18 18 18 16 15 15 15 15 14 13 12 11 11 11 11 11 11 11 10 9 7 6 5 4 3 3 5 6 7 7 7 6 5 5 7 9 10 11 13 15 18 21 24 25 26
29 28 31 31 28 25 23 22 20 16 15 16 14 11 9 7 5 11 16 16 16 15 14 15 17 18 18 18 16 16 16 17 17 17 17 16 16 16 15 14 15 17 18 18 17 16 15 15 14 14 13 12 11 10 9 9 9 9 8 8 9 8 8 7 6 4 3 3 3 4 5 5 5 5 5 5 6 7 9 10 12 14 16 18 21 22 23
23 21 25 28 28 26 23 21 18 17 18 20 18 14 12 11 9 10 12 13 15 15 13 14 16 17 16 15 14 15 16 16 16 17 17 18 18 17 15 14 14 15 16 16 16 16 15 15 14 13 12 11 10 10 9 8 8 8 7 6 6 5 6 7 6 5 4 3 3 4 4 3 3 4 5 6 6 7 8 10 12 14 15 16 17 18 19
16 16 20 25 27 26 23 21 20 20 20 20 18 16 15 14 13 11 11 12 13 13 13 14 16 16 15 14 14 16 18 18 18 18 19 19 19 17 15 13 14 15 15 16 16 16 15 14 12 11 9 9 10 10 10 10 9 8 7 6 5 4 5 6 5 5 5 4 4 4 4 4 4 4 5 6 6 6 7 9 11 12 13 12 13 14 14
17 18 23 27 28 28 27 25 23 21 18 16 15 15 15 15 15 14 13 13 13 14 15 17 16 15 16 17 17 18 19 19 19 20 19 19 19 18 16 14 15 16 18 19 19 19 17 14 11 9 8 10 10 10 10 10 9 8 7 7 6 5 5 5 5 5 5 5 4 5 5 4 5 6 6 6 7 7 8 8 9 10 11 11 10 11 12
17 21 26 27 26 27 27 26 24 22 18 15 14 14 14 14 15 17 17 17 17 17 18 20 19 18 19 20 20 21 21 21 21 20 19 19 19 18 16 16 17 19 21 23 22 20 18 15 12 10 10 12 12 12 11 9 8 7 7 6 6 6 6 5 4 4 5 5 4 5 4 4 5 7 7 7 8 8 8 9 9 9 10 10 9 10 11
18 22 24 24 24 24 24 23 23 22 20 19 17 15 15 16 18 19 19 18 18 18 19 21 22 23 24 23 22 21 20 21 21 21 21 20 19 17 17 17 18 19 22 23 22 19 17 16 15 13 13 14 14 13 11 9 8 8 7 6 7 7 6 6 5 5 6 6 5 6 6 5 5 7 7 7 7 8 9 9 9 9 9 10 10 10 11
19 20 21 21 21 21 21 21 22 21 20 18 17 17 18 20 20 20 20 19 20 20 21 21 23 25 26 26 24 24 23 22 22 22 21 20 19 19 19 19 18 19 22 23 21 19 18 17 16 15 16 16 16 15 13 11 10 10 9 8 8 8 7 7 7 6 7 7 6 7 7 6 5 6 7 8 8 8 9 9 9 9 9 10 10 10 10
29 28 26 24 22 22 21 20 20 20 19 19 19 20 22 24 24 24 24 24 23 23 23 23 25 27 29 30 30 29 27 25 25 25 24 22 21 21 22 21 20 22 24 22 20 19 20 19 19 19 19 18 18 17 16 15 13 12 12 11 10 9 8 8 7 7 7 7 6 6 7 6 6 7 8 8 8 8 9 10 11 11 10 9 9 10 10
46 45 43 38 35 35 34 30 25 25 28 28 27 28 30 31 31 31 31 29 28 28 29 31 31 31 31 32 32 30 27 25 26 27 26 25 25 25 26 25 25 26 26 24 21 20 20 20 21 22 22 21 20 18 17 16 14 14 13 13 13 12 11 9 9 9 8 9 8 8 7 7 7 8 8 8 8 7 8 10 12 11 10 10 10 11 11
55 55 52 48 47 48 48 44 40 40 42 40 37 38 39 40 41 41 40 38 36 36 36 36 35 32 30 29 30 29 27 26 26 26 25 25 25 25 26 26 27 27 26 26 25 24 23 22 23 23 22 21 21 19 18 17 16 16 15 15 14 14 12 11 11 11 10 10 11 11 10 10 10 10 9 9 9 8 8 9 9 9 9 9 9 10 10
51 52 50 49 50 50 50 48 46 47 47 44 41 42 43 43 44 44 43 40 40 38 37 36 36 35 33 32 33 32 30 29 28 26 25 25 24 24 24 25 25 25 25 26 27 27 26 25 25 23 21 20 20 19 18 18 18 18 18 17 17 16 15 13 12 12 11 12 12 13 12 12 12 12 12 12 11 10 10 9 8 8 8 8 7 7 8
41 42 42 43 44 45 45 44 43 43 43 40 38 38 39 39 41 41 40 38 38 38 36 35 34 34 33 33 33 31 30 30 30 29 28 27 25 23 23 24 24 25 26 27 27 27 27 27 26 24 22 21 20 19 19 19 20 20 20 20 19 18 18 17 15 14 14 14 14 14 14 14 14 14 14 14 13 12 11 10 9 8 7 6 5 5 6
36 36 36 38 39 39 39 39 39 39 39 37 36 36 37 37 38 38 36 35 35 35 35 34 33 32 31 31 30 29 28 27 27 28 29 29 27 25 24 23 24 25 27 28 28 27 26 26 25 23 22 21 21 20 21 21 22 22 22 22 22 22 21 20 19 18 17 17 16 15 16 16 16 17 16 15 14 12 10 9 9 10 8 7 6 4 2
33 34 34 35 35 35 35 35 35 35 36 35 35 35 36 36 36 35 34 34 34 33 34 35 35 34 33 32 32 30 28 26 24 24 24 26 27 26 24 23 23 25 26 27 27 26 25 24 23 22 21 21 21 21 22 23 24 24 24 24 25 25 25 24 23 22 21 21 19 18 17 17 16 17 17 16 15 14 13 11 9 9 9 9 7 4 1
32 32 32 33 33 34 34 34 33 33 33 33 33 33 34 34 34 33 32 32 32 32 33 34 34 33 33 32 32 32 31 30 28 26 25 25 25 24 23 22 23 24 24 25 25 25 24 22 20 20 21 22 23 23 24 24 24 24 24 24 25 25 25 25 25 25 25 24 23 22 21 20 19 18 17 17 17 17 17 15 13 10 9 9 8 5 3
30 30 30 31 32 32 31 31 30 30 31 31 32 32 31 30 29 30 29 29 29 30 30 30 30 30 29 28 27 27 28 29 28 26 24 23 22 21 22 23 24 24 25 26 26 24 22 21 20 20 22 23 24 25 25 25 25 25 24 24 24 24 24 24 24 25 25 26 26 25 24 24 23 22 20 19 18 16 16 17 16 14 12 11 9 8 9
27 27 28 29 30 29 28 28 28 29 29 29 29 29 27 26 26 26 26 26 26 25 25 25 25 25 25 24 23 22 22 22 23 22 20 19 19 20 21 22 23 23 24 25 25 24 23 22 22 22 24 25 25 25 25 25 25 25 25 25 24 24 23 23 23 23 24 25 26 27 27 27 26 25 23 22 20 17 15 16 18 18 18 16 14 12 13
23 24 25 25 26 25 24 24 25 26 26 26 25 24 24 24 24 23 23 23 22 22 22 22 22 22 22 23 23 21 19 18 19 19 18 16 17 18 18 19 19 20 20 21 23 24 23 23 24 25 25 26 25 25 25 25 25 25 25 26 26 25 25 24 22 22 22 23 25 26 27 28 27 27 26 26 24 21 18 18 18 19 19 18 16 14 14
20 20 21 22 22 21 19 19 20 20 21 21 21 20 20 20 20 20 20 19 19 19 18 18 19 19 19 19 20 19 18 17 16 16 15 14 14 15 15 16 17 17 17 18 19 21 22 23 24 25 26 25 24 23 23 24 25 25 25 25 25 26 26 25 24 23 23 23 23 24 25 26 27 28 28 27 26 25 22 20 19 17 17 17 16 14 13
18 18 18 18 18 17 17 17 18 17 16 17 17 17 16 17 17 17 16 15 15 15 16 16 16 17 17 17 16 15 14 13 13 12 12 12 13 13 13 14 14 15 16 16 17 18 20 21 22 23 23 23 23 23 22 22 22 23 23 23 23 24 25 25 25 25 25 24 23 23 23 24 25 27 27 27 27 26 25 23 21 19 17 16 16 14 13
16 16 16 15 15 15 15 15 15 15 15 15 15 14 14 15 15 15 14 14 13 13 13 14 15 15 14 14 13 12 11 11 10 10 10 11 11 12 12 13 13 14 15 16 16 16 17 18 19 20 19 19 19 20 20 20 19 19 20 20 20 21 22 22 22 23 24 25 24 24 23 23 24 25 25 26 27 27 26 25 24 22 21 19 18 17 15
14 14 14 13 13 14 13 13 13 13 13 13 14 14 13 13 14 14 14 14 14 13 13 13 14 14 13 12 11 11 10 10 10 10 10 10 11 11 12 12 13 13 14 14 14 14 15 15 16 17 17 17 16 16 17 17 17 17 17 17 17 18 20 20 20 20 21 22 23 23 23 23 23 23 23 24 25 26 26 26 25 24 23 22 20 18 17
Wind_Direction
287 302 315 344 343 240 219 211 207 208 213 216 220 225 225 222 229 239 222 215 226 230 223 216 213 218 233 252 273 292 308 308 309 320 318 292 235 197 220 238 244 252 252 250 246 243 239 232 225 221 218 219 223 225 224 221 214 209 214 222 226 228 230 234 236 238 240 239 239 238 238 238 238 237 237 238 238 238 239 240 239 239 239 239 239 239 238
263 246 254 273 263 238 234 232 223 218 221 225 228 232 233 234 237 241 240 237 235 233 236 243 246 248 256 265 275 285 291 294 297 302 302 289 264 243 243 255 291 301 291 277 262 249 244 239 233 228 223 221 223 225 225 225 221 214 213 221 226 228 231 235 236 237 239 240 240 239 239 239 239 239 239 239 240 240 240 241 241 240 240 240 240 240 239
236 226 229 228 236 242 242 241 236 231 230 229 229 232 235 240 243 244 244 247 246 239 242 254 256 255 257 261 266 273 282 288 289 287 282 274 273 285 288 276 290 301 298 285 270 260 256 250 240 234 231 229 227 224 223 227 228 221 216 220 226 229 232 234 234 236 238 240 240 240 240 240 240 240 240 240 241 241 242 242 242 242 242 241 241 241 241
216 195 207 222 240 257 252 241 234 230 229 227 226 226 228 231 238 243 245 246 247 243 244 253 255 254 256 261 264 267 272 275 277 277 276 274 277 286 291 286 286 292 290 283 277 275 273 264 250 241 236 232 230 227 225 227 227 222 218 221 228 232 233 233 234 236 238 239 240 241 241 241 241 241 241 241 242 242 243 243 243 243 243 242 241 241 242
210 164 194 235 251 254 249 237 227 225 225 226 227 226 227 228 231 238 242 242 246 246 244 245 245 247 254 259 261 264 266 268 269 269 269 272 276 281 284 283 282 284 283 280 280 279 276 270 260 251 241 234 233 232 228 223 220 219 221 226 230 233 233 234 236 238 239 239 240 241 242 242 242 242 242 242 243 243 244 244 244 244 244 244 242 241 242
225 169 175 258 239 234 239 221 215 221 223 224 226 227 226 223 225 237 247 251 254 250 242 242 247 252 258 261 261 262 262 263 265 265 266 269 273 275 277 277 278 280 279 277 278 277 276 276 267 255 245 238 235 234 230 225 222 222 225 228 231 233 235 236 238 239 240 241 241 242 242 242 242 242 243 244 244 244 245 245 245 245 246 245 244 243 242
251 256 238 230 226 220 126 85 127 214 229 230 234 239 237 231 229 235 243 247 250 251 253 257 265 270 268 267 265 262 263 265 267 268 268 270 272 274 274 274 274 275 274 273 274 274 277 280 270 255 247 237 231 230 230 228 226 226 226 228 230 233 235 237 238 239 240 241 241 241 242 242 242 242 244 245 245 245 245 246 247 247 247 247 246 245 244
252 253 225 218 222 33 56 170 137 144 189 206 229 240 238 238 240 241 246 250 249 250 253 254 261 267 267 266 265 263 264 265 264 266 268 269 271 270 266 265 266 268 268 269 270 272 277 279 270 255 245 233 223 224 228 229 228 227 228 228 230 231 234 235 236 237 238 239 239 239 239 240 241 242 244 245 246 246 245 246 247 248 248 249 248 247 247
238 239 236 238 274 301 243 206 128 104 142 132 246 245 228 219 237 272 287 272 265 266 263 261 266 271 268 265 264 264 264 259 255 259 263 261 261 261 259 261 263 265 266 266 268 272 275 273 264 250 238 226 218 218 224 228 228 227 228 229 230 231 232 234 236 236 237 238 239 239 239 240 242 244 245 247 247 247 246 246 246 247 249 249 249 249 248
231 241 247 242 251 259 232 190 125 93 77 62 23 271 219 120 76 29 340 289 286 286 285 287 297 298 274 260 261 265 264 254 247 249 251 251 255 258 260 262 264 266 266 266 268 271 269 263 255 241 230 221 215 215 220 225 227 227 228 229 230 231 232 234 236 237 238 240 241 241 242 243 245 246 247 248 248 248 248 247 247 247 248 249 250 250 248
228 234 239 232 238 248 158 141 126 111 99 100 148 240 228 112 69 33 337 307 305 304 311 309 303 282 253 248 266 279 269 248 232 233 237 244 251 254 258 261 262 264 266 264 262 258 252 246 238 227 218 212 211 214 220 225 226 226 228 229 230 232 234 235 237 238 240 242 242 243 243 245 245 246 247 248 249 250 250 250 250 249 248 249 250 250 250
226 232 239 237 242 243 149 131 120 101 77 141 212 228 208 92 52 21 346 319 311 313 319 310 276 248 245 260 319 330 315 258 217 229 235 240 245 249 255 257 255 255 255 247 238 234 232 229 218 207 201 200 205 214 221 225 225 225 227 229 230 233 235 237 239 241 242 242 243 243 244 245 246 248 248 249 249 249 250 251 250 249 249 249 249 249 249
224 231 238 240 246 253 243 210 156 92 32 247 229 227 131 73 11 360 336 311 313 313 307 299 276 262 270 289 314 326 326 306 258 249 245 245 245 244 247 245 238 237 235 225 219 219 218 213 203 193 188 191 200 210 217 223 225 226 227 230 232 234 236 238 240 242 243 244 245 245 246 247 248 249 248 247 247 248 249 249 249 250 249 247 246 247 247
222 223 233 243 242 237 252 242 230 245 271 240 211 142 112 74 336 346 292 287 307 308 296 291 287 285 286 289 295 301 303 295 270 254 248 244 240 241 246 238 218 211 217 211 206 206 204 199 193 187 183 185 192 200 207 215 221 223 226 230 232 234 236 238 239 240 242 243 244 245 246 248 249 249 249 248 248 249 250 249 250 251 249 246 246 247 246
224 225 227 233 225 178 351 280 232 227 256 299 358 343 261 356 348 341 319 300 310 303 293 290 290 291 290 285 284 288 291 288 263 245 234 223 221 227 243 247 206 207 210 196 189 190 190 186 182 176 176 179 183 187 191 195 203 212 221 229 232 234 237 238 239 239 240 242 244 246 248 249 250 251 251 250 250 251 250 249 249 248 246 245 247 247 244
218 219 211 213 308 349 352 335 280 269 307 332 342 325 307 337 347 334 324 320 317 304 294 292 294 295 291 284 279 278 275 268 251 243 232 222 227 218 158 60 55 66 117 161 171 177 178 176 172 166 170 178 180 183 188 192 198 207 216 224 228 231 233 235 237 238 239 242 246 250 251 251 251 252 252 251 250 250 250 249 247 244 243 244 246 246 245
270 257 261 314 316 307 318 326 319 317 319 324 329 318 308 313 323 323 315 311 316 311 295 292 293 291 287 284 277 269 263 249 224 226 221 212 208 168 135 115 95 87 89 101 120 146 161 169 171 167 170 178 181 183 187 191 197 205 210 216 219 221 225 227 230 233 236 240 244 248 249 250 251 252 253 251 248 246 246 247 246 245 246 246 247 248 248
299 285 276 283 286 288 302 319 321 319 316 313 317 315 307 305 309 309 304 302 306 301 293 294 295 288 283 278 268 259 251 236 221 210 199 194 188 168 149 130 113 104 106 105 101 113 135 154 165 166 168 174 177 180 180 183 190 195 199 205 208 210 213 215 218 222 225 230 236 241 243 244 246 249 249 246 244 243 243 246 247 247 248 248 247 249 251
282 276 272 279 284 292 303 308 311 315 312 309 309 307 303 299 293 293 301 302 294 286 281 290 295 290 278 264 254 247 236 226 216 202 186 182 181 170 153 133 122 119 116 110 103 103 112 129 145 153 157 163 168 169 167 170 177 181 182 188 194 198 201 205 209 212 212 215 220 224 228 230 232 239 243 242 243 245 245 247 249 250 253 253 252 252 253
254 258 274 286 289 291 294 293 294 300 300 300 301 298 295 290 282 282 292 289 278 272 259 258 300 305 271 246 235 229 223 218 213 199 180 173 180 178 153 129 126 129 126 118 109 104 103 113 128 138 144 148 153 155 152 152 157 161 160 157 158 166 176 184 190 194 198 205 209 210 214 220 226 234 240 241 242 245 247 249 250 251 252 254 254 255 256
261 260 267 276 278 278 274 271 275 285 292 299 302 291 277 269 264 266 270 265 244 171 192 177 131 104 228 231 223 213 207 205 204 193 172 161 164 161 140 128 126 125 122 118 112 104 101 107 118 129 136 139 141 144 147 148 148 151 154 152 149 161 178 187 190 191 192 196 198 200 204 210 218 226 229 230 234 238 239 242 246 249 251 252 254 256 256
258 255 259 264 268 272 265 266 285 305 301 303 306 297 283 268 252 240 243 239 147 111 141 152 143 128 100 135 200 180 165 168 168 157 151 146 137 128 119 113 113 114 112 110 106 101 99 101 106 113 121 127 132 136 143 148 151 156 160 156 152 156 169 182 191 196 201 204 204 204 204 206 216 225 229 232 237 240 242 243 245 250 254 257 259 261 261
261 263 267 266 270 282 280 281 298 302 296 297 300 298 295 285 261 231 216 199 140 112 116 133 139 129 104 104 137 135 127 130 129 127 130 127 117 113 111 108 109 109 107 105 101 97 94 93 94 96 100 103 111 118 123 125 129 138 145 145 146 149 152 162 172 171 174 191 206 217 224 227 233 239 241 242 245 250 254 255 257 259 262 265 267 269 270
268 269 271 271 270 272 275 280 289 289 288 291 290 288 291 289 267 221 183 160 133 115 117 124 123 116 105 99 101 101 99 103 109 116 121 118 114 112 110 109 109 108 104 103 101 98 98 97 95 93 90 88 90 95 96 96 100 108 114 117 118 118 117 122 125 115 105 109 115 116 118 124 129 131 131 144 208 248 257 267 282 288 286 286 284 280 279
264 267 269 269 266 266 271 279 282 279 279 283 282 278 280 279 259 207 167 148 133 125 126 121 112 111 108 99 93 96 96 94 97 101 102 104 107 109 107 105 105 103 101 101 101 100 101 100 96 94 92 89 88 89 90 90 92 94 97 98 98 99 100 103 105 105 105 106 105 103 102 100 96 94 91 84 71 55 38 25 16 9 2 353 338 323 315
262 265 268 268 265 264 265 268 270 271 274 278 278 274 268 258 235 193 161 146 138 136 134 127 126 129 119 105 100 102 101 99 100 98 95 95 97 99 100 100 100 99 99 99 98 100 101 99 97 94 90 87 87 88 90 93 93 92 91 91 91 94 98 102 104 104 103 101 98 95 92 88 85 82 72 60 49 33 17 8 3 358 355 354 351 347 341
261 259 260 262 259 256 254 253 258 264 268 273 273 262 243 226 207 172 147 141 140 138 133 130 134 133 121 107 102 102 99 98 99 97 93 92 92 93 96 98 97 98 100 99 96 96 96 96 95 91 86 84 84 86 90 95 98 97 96 94 94 95 98 101 102 101 100 97 91 84 81 79 80 73 53 37 28 18 10 5 360 354 352 354 354 353 351
261 255 249 245 245 247 246 246 253 260 265 267 259 226 203 206 192 148 126 126 130 129 121 117 117 115 109 103 98 93 88 87 88 86 82 83 87 91 95 96 97 99 100 97 94 92 90 88 86 82 79 79 81 83 86 91 94 95 94 93 91 92 96 101 101 102 105 100 85 75 77 80 74 57 34 22 15 9 4 360 354 349 347 348 348 347 350
250 249 245 240 241 244 245 244 249 256 258 251 226 188 189 207 181 139 121 116 117 118 114 106 96 89 91 92 90 85 79 75 73 73 70 72 79 86 89 92 94 95 93 89 86 86 84 82 79 76 74 74 76 78 81 84 87 88 86 85 80 76 81 90 92 97 104 97 79 73 77 75 63 47 24 6 6 7 2 352 348 348 347 346 342 341 349
245 241 238 236 235 235 235 238 244 247 237 217 196 180 191 210 176 131 120 115 110 105 102 98 89 82 81 81 80 80 79 75 71 71 70 69 71 76 82 86 85 81 77 73 72 73 74 72 69 68 69 69 69 70 72 74 76 77 77 76 74 71 73 77 76 72 77 74 68 70 68 55 40 31 17 354 355 3 359 348 345 347 348 346 342 344 354
250 236 230 227 224 221 224 229 232 226 204 187 180 176 181 189 154 124 122 119 111 103 96 90 86 80 78 78 78 78 78 76 74 73 72 71 68 67 70 73 73 72 70 67 65 64 65 64 61 61 64 68 70 71 73 74 74 72 71 69 66 65 68 71 65 51 42 45 42 44 45 34 12 8 5 351 347 353 350 339 336 342 347 345 343 350 1
241 228 219 215 211 211 213 209 200 191 180 174 173 170 164 156 143 130 125 119 113 110 102 90 84 79 76 77 79 79 79 78 76 73 73 72 69 65 62 64 67 68 70 69 67 63 61 60 60 60 61 65 69 70 70 75 75 73 72 69 60 52 52 55 53 39 26 24 15 6 8 4 351 345 340 336 340 345 338 328 327 336 343 343 342 351 6
195 191 190 190 189 187 181 170 166 170 171 170 170 169 162 152 141 132 126 118 112 107 100 94 93 90 87 85 84 84 85 82 78 77 76 74 72 69 65 65 67 68 68 69 70 70 68 65 62 59 57 59 62 62 61 64 64 60 58 57 53 44 36 35 39 34 17 6 360 351 347 349 347 336 322 325 333 335 329 322 322 331 338 337 339 351 8
164 165 168 171 169 162 155 153 158 164 164 163 164 164 160 150 141 136 133 126 117 110 105 104 103 99 94 93 90 87 86 83 79 77 75 73 74 74 70 68 69 70 69 67 64 65 68 68 64 57 52 53 54 52 51 52 52 49 48 43 40 40 29 18 20 19 2 353 356 354 346 339 328 316 312 322 324 320 320 317 312 320 333 335 330 336 352
152 151 152 155 153 149 150 155 161 161 157 155 155 154 150 143 136 134 133 128 123 119 115 113 114 110 102 96 88 82 81 82 81 78 75 73 74 73 70 67 66 65 67 67 62 58 59 60 57 52 49 48 50 52 53 52 45 39 39 36 34 33 26 14 5 347 333 334 337 332 326 321 315 313 315 319 314 307 311 314 307 307 323 332 326 322 332
134 135 137 139 138 141 149 156 159 159 157 155 149 140 135 132 129 129 129 126 123 119 112 109 110 108 102 95 86 79 80 83 81 76 74 73 73 70 65 60 57 57 61 64 63 60 58 54 53 53 51 49 50 54 60 61 49 36 35 37 35 31 22 11 3 349 339 339 335 324 320 319 319 316 311 307 306 302 301 306 308 307 311 317 317 316 321
116 121 125 127 131 138 147 152 152 151 149 144 134 126 127 129 126 124 121 117 116 115 108 103 102 101 99 96 91 85 83 83 78 74 73 72 71 70 66 60 55 55 57 59 64 68 67 62 60 60 58 53 50 50 55 60 53 41 34 31 30 29 21 11 7 2 353 349 343 336 332 330 327 321 308 295 295 298 297 299 305 306 305 309 311 311 313
85 91 97 102 110 120 126 133 138 137 130 123 118 118 121 122 120 118 115 111 111 111 105 100 99 100 98 96 92 86 81 78 76 75 74 71 70 69 65 59 55 55 56 59 67 74 74 71 68 65 60 55 48 45 49 56 55 46 38 34 31 29 24 17 13 9 1 356 354 348 344 341 336 333 322 307 299 301 301 300 300 298 298 305 309 308 307
67 72 74 75 79 88 94 96 100 103 103 102 103 106 108 108 106 105 104 101 102 105 104 100 98 96 93 89 86 82 78 76 76 75 74 71 71 72 69 66 64 64 64 66 69 72 73 72 70 65 61 57 53 49 50 57 58 52 46 43 39 35 31 27 23 19 13 10 7 3 360 356 350 344 339 329 319 313 307 301 297 296 298 303 306 308 308
61 64 65 64 65 71 76 77 76 77 81 84 85 89 92 93 93 93 91 89 90 96 99 98 94 89 84 81 81 79 78 78 77 74 71 69 68 68 67 66 66 67 67 67 66 66 67 68 69 66 62 59 57 56 57 61 62 59 56 53 48 42 38 33 27 24 21 18 15 13 12 8 3 358 354 348 341 335 325 314 307 304 303 305 308 312 311
66 67 67 67 66 68 72 73 72 72 73 74 75 78 83 86 87 87 87 85 85 88 91 91 89 85 82 80 79 78 76 76 75 73 70 66 63 61 61 61 60 61 64 65 64 63 62 62 64 66 66 64 63 63 64 64 63 61 60 60 57 52 47 40 31 27 26 26 24 21 19 14 8 4 2 0 357 349 340 333 326 314 305 308 316 316 310
75 76 76 75 74 74 76 76 76 77 79 78 78 80 83 84 85 85 85 84 83 83 82 83 84 85 85 83 79 75 72 71 71 71 71 68 64 61 59 57 57 60 63 63 62 62 61 60 61 64 67 69 69 69 67 66 64 61 60 60 59 56 53 49 43 38 36 33 29 27 26 25 19 12 9 7 3 354 344 342 343 337 326 324 325 313 303
78 80 81 81 82 82 82 81 82 85 87 88 89 90 88 88 87 87 85 83 82 80 79 78 78 80 82 84 83 80 75 70 67 68 70 70 69 66 62 58 57 59 60 59 59 59 61 62 63 64 66 69 70 70 68 66 64 62 61 60 58 57 55 53 50 47 44 40 35 30 29 29 25 19 17 18 15 7 3 3 4 3 359 351 339 316 279
82 84 84 85 87 90 90 89 89 90 91 91 91 89 88 87 86 84 82 82 80 80 80 79 77 75 75 76 78 80 79 73 67 65 64 64 64 62 61 60 60 59 58 57 56 56 56 59 63 66 67 67 68 68 68 67 65 63 61 59 58 56 54 51 51 50 47 45 42 39 36 35 31 24 23 28 30 28 27 26 22 19 19 12 0 345 287
85 85 86 88 90 91 91 90 90 90 90 89 86 83 82 81 80 78 78 78 78 78 78 78 77 76 74 72 71 72 73 73 70 65 61 59 57 56 56 59 61 61 60 59 57 55 55 56 59 63 65 65 65 65 65 66 66 65 62 59 57 56 53 50 49 50 49 48 47 47 46 45 44 39 34 34 36 35 31 29 28 28 27 24 19 25 72
82 83 84 87 89 89 89 89 89 88 87 85 83 82 79 77 76 75 74 74 76 77 77 76 76 77 76 73 69 66 66 66 65 62 58 58 59 60 62 63 62 61 62 62 59 57 57 57 58 61 64 64 62 61 60 60 61 62 62 60 57 55 53 50 48 48 49 49 48 48 48 47 47 47 46 44 42 37 31 29 32 39 44 46 49 64 90
78 80 83 86 89 91 91 90 89 87 85 83 83 84 82 79 79 78 77 76 77 78 77 76 75 74 73 72 70 66 62 62 62 60 57 58 61 63 64 64 61 58 58 58 58 57 56 56 58 61 62 62 60 58 56 56 56 57 58 59 58 56 55 53 49 47 49 50 49 49 49 47 45 45 47 48 48 44 37 34 36 41 47 52 59 70 84
79 81 84 86 87 87 86 85 85 87 87 87 86 86 85 84 83 82 81 80 79 78 78 77 75 73 70 69 69 68 66 65 65 63 61 61 62 62 61 61 60 59 55 53 52 52 52 52 55 58 58 58 56 53 52 53 54 53 53 55 56 56 56 55 52 48 47 48 48 48 47 47 45 44 42 43 45 45 43 40 39 37 37 40 45 53 63
78 81 84 85 81 76 73 73 75 79 83 87 88 88 88 86 84 81 79 79 79 78 77 76 73 71 69 67 66 66 66 67 68 68 66 61 60 60 57 54 54 55 54 51 47 45 44 45 48 51 53 53 53 51 50 50 51 50 50 50 51 52 53 54 55 54 51 48 47 47 45 44 44 44 43 41 42 42 41 41 41 39 37 36 37 39 44
75 76 79 81 79 74 69 68 68 69 71 75 79 82 83 84 82 78 75 73 74 75 75 73 70 66 64 62 61 61 60 58 58 60 59 55 54 54 54 50 48 49 51 51 47 41 39 40 42 45 46 47 48 49 49 48 47 48 47 46 46 47 47 47 48 51 51 49 48 47 45 42 41 41 41 40 39 39 39 40 40 40 40 38 35 33 32
66 66 66 70 75 77 77 76 76 75 73 70 70 71 74 76 79 79 77 72 69 68 69 69 67 62 58 55 55 54 53 50 46 45 48 49 47 45 45 46 44 44 46 47 45 40 37 38 40 42 44 44 42 43 45 45 44 44 44 42 40 40 41 42 42 43 44 45 46 46 45 44 42 40 39 39 37 36 36 36 36 38 40 40 37 35 32
52 55 56 56 59 63 69 74 77 78 77 73 69 69 69 69 70 70 68 67 65 63 63 65 65 62 59 56 52 47 44 42 40 38 41 44 43 41 41 42 42 41 42 42 40 36 35 36 36 38 41 41 40 38 38 39 38 38 38 38 37 35 35 37 40 40 39 39 40 40 40 41 42 41 40 39 37 35 34 33 32 33 35 37 37 37 36